Back to catalog

SL-16 DEB

AliveLEO
NORAD 22806·DEBRIS·🇷🇺 Russia

Launched Sep 16, 1993 from Baikonur Cosmodrome

Loading…

Next Passes (next 24 hours)

TLE

FreshSource: Space-Track

Epoch: Sep 14, 2026, 06:50 UTC

1 22806U 93059E   26257.28531316  .00000026  00000-0  63954-4 0  9994
2 22806  71.0206 349.8071 0201737 236.7654 153.3148 13.73947947653363

Track SL-16 DEB in real time with AllMySat

Download on the App Store